Back to catalog

XIGUANG 1-05

AliveScienceSSO
NORAD 61901·PAYLOAD·🇨🇳 China
This satellite name has not been confirmed by official sources yet.

Launched Nov 11, 2024 from Jiuquan Satellite Launch Center

Loading…

Next Passes (next 24 hours)

TLE

FreshSource: Space-Track

Epoch: Sep 14, 2026, 15:40 UTC

1 61901U 24205H   26257.65335035  .00010496  00000-0  32386-3 0  9997
2 61901  97.4044 335.7831 0010836  81.9890 278.2582 15.33700541102422

Track XIGUANG 1-05 in real time with AllMySat

Download on the App Store